sat.trackr.live / text

‹ back to catalog

STARLINK-3643

NORAD 51992 · 2022-025AN

PAYLOAD ACTIVE UNKNOWN

§ Identity

Operator
Country
US
Launch date
2022-03-09
Launch site
AFETR
Launch vehicle
Mass (kg)
RCS (m²)

Purposes: comms

External: N2YO · Heavens-Above · Gunter

§ Orbital elements

Epoch: 2026-05-25T02:37:59.871936Z

Period
95.44 min
Inclination
53.2147°
Eccentricity
0.0001736
Mean motion
15.08865567 rev/d
Perigee alt
538.5 km
Apogee alt
540.9 km
Semi-major
6,917.8 km
B*
-2.9361e-4
RAAN
36.0566°
Arg perigee
96.2096°
Mean anomaly
263.9094°
Rev number
23,244

§ Raw data

STARLINK-36431 51992U 22025AN  26145.10972074 -.00004961  00000+0 -29361-3 0  99902 51992  53.2147  36.0566 0001736  96.2096 263.9094 15.08865567232444

JSON: /api/v1/satellites/51992 · /tle

For live sub-satellite position, see the globe view (requires WebGL).

§ Visibility from observer

Set your observer location to see the next 7 days of passes ≥ 10°. The values pass through the URL so the page stays shareable.

No JS? Fill the form by hand. The geolocation button needs JavaScript.